Regional Weather Roundup
Issued by NWS

Home | Current Version | Previous Version | Graphics & Text | Print | Product List | Glossary On
Versions: 1 2 3 4 5 6 7 8 9 10 11 12 13 14 15 16 17 18 19 20 21 22 23 24 25 26 27
000
ASUS45 KCYS 200310
RWRWY

WYOMING REGIONAL WEATHER ROUNDUP
NATIONAL WEATHER SERVICE CHEYENNE WY
900 PM MDT THU APR 19 2018

NOTE:  "FAIR" INDICATES FEW OR NO CLOUDS BELOW 12,000 FEET
WITH NO SIGNIFICANT WEATHER AND/OR OBSTRUCTIONS TO VISIBILITY.

WYZ001-200400-
YELLOWSTONE NATIONAL PARK

CITY           SKY/WX    TMP DP  RH WIND       PRES   REMARKS
LK YELLOWSTONE   N/A     37  19  48 MISG      30.04F
W YELLOWSTONE  NOT AVBL

$$
WYZ002>013-054>058-071-098>099-200400-
NORTHERN WYOMING

CITY           SKY/WX    TMP DP  RH WIND       PRES   REMARKS
JACKSON        NOT AVBL
CODY           FAIR      48  25  40 CALM      30.02S
GREYBULL       FAIR      52  32  46 W10       29.96S
WORLAND        FAIR      50  32  50 N6        29.96S
SHERIDAN       FAIR      49  30  48 S7        30.02R
BUFFALO        FAIR      47  29  49 SW6       30.05R
GILLETTE         N/A    N/A N/A N/A MISG      30.05R
HULETT         FAIR      45  32  61 E17G23    30.12S
NEWCASTLE      FAIR      50  27  40 SE18G32   30.10S

$$
WYZ014>020-022>026-101>103-200400-
CENTRAL WYOMING

CITY           SKY/WX    TMP DP  RH WIND       PRES   REMARKS
BIG PINEY      FAIR      47   2  15 E8        29.88S
PINEDALE       MOCLDY    48  10  21 E13G18    29.90S
DUBOIS         FAIR      39  16  38 SE9       29.99S WCI  33
LANDER         FAIR      47  24  40 NW7       29.94S
RIVERTON       FAIR      49  25  39 N13       29.93F
CASPER         FAIR      51  25  36 E20       29.93S
DOUGLAS        FAIR      51  27  39 SE22G29   30.01R

$$
WYZ021-027>030-104>119-200400-
SOUTHERN WYOMING

CITY           SKY/WX    TMP DP  RH WIND       PRES   REMARKS
EVANSTON       MOCLDY    50   6  16 NW3       29.83S
KEMMERER       FAIR      48   0  13 CALM      29.87R
FORT BRIDGER   FAIR      50  15  25 SE14      29.88R
ROCK SPRINGS   MOCLDY    47  17  30 NE13      29.88R
DIXON          MOCLDY    57  14  18 S14G32    29.87R
RAWLINS        CLOUDY    51  18  27 NE14      29.88S
SARATOGA       CLOUDY    52  14  22 SE8       29.90R
LARAMIE        FAIR      45  18  34 SE39G46   29.95S
CHEYENNE       FAIR      46  23  40 SE24G30   30.02S
TORRINGTON     FAIR      49  31  49 E23       30.03S
PINE BLUFFS    FAIR      48  23  37 SE28G37   30.04S

$$




USA.gov is the U.S. government's official web portal to all federal, state and local government web resources and services.